Regional Weather Roundup
Issued by NWS Albany, NY

Home | Current Version | Previous Version | Graphics & Text | Print | Product List | Glossary On
Versions: 1 2 3 4 5 6 7 8 9 10 11 12 13 14 15 16 17 18 19 20 21 22 23 24 25 26 27 28 29 30 31 32 33 34 35 36 37 38 39 40 41 42 43 44 45 46 47 48 49 50
000
ASUS41 KALY 280710
RWRALY

NEW YORK STATE HOURLY WEATHER ROUNDUP
NATIONAL WEATHER SERVICE ALBANY NY
200 AM EST SAT FEB 28 2015

NOTE: "FAIR" INDICATES FEW OR NO CLOUDS BELOW 12,000 FEET WITH NO
SIGNIFICANT WEATHER AND/OR NO OBSTRUCTIONS TO VISIBILITY.

NYZ032-033-038>043-046>054-057>066-NYZ062>081-280800-
EAST


CITY           SKY/WX    TMP DP  RH WIND       PRES   REMARKS
ALBANY         PTCLDY     4  -6  63 CALM      30.68R
GLENS FALLS    CLEAR     -6 -11  79 CALM      30.64R
POUGHKEEPSIE   CLEAR      2  -7  66 CALM      30.66R
MONTGOMERY     CLEAR     11  -7  44 NW13      30.62S WCI  -4
WHITE PLAINS   CLEAR     11  -3  53 NW9       30.60S WCI  -2
ISLIP          CLEAR     18   3  52 N9        30.61S WCI   7
NEW YORK CITY  CLEAR     19  -1  41 N14       30.65R WCI   6
CENTRAL PARK   CLEAR     19  -4  36 VRB5      30.67R WCI  12
$$

NYZ005>009-017-018-044>046-055-056-280800-
CENTRAL


CITY           SKY/WX    TMP DP  RH WIND       PRES   REMARKS
FULTON         CLOUDY     4  -4  69 SW6       30.67R WCI  -7
SYRACUSE       MOCLDY     9  -1  63 W12       30.68R WCI  -6
ROME           FLURRIES   6   0  76 W8        30.69R WCI  -7
ELMIRA         CLEAR     -7 -12  79 CALM      30.66S
BINGHAMTON     CLEAR      1  -5  75 NW5       30.55S WCI  -9
MONTICELLO     CLEAR      3  -6  66 W7        30.56R WCI  -9
$$

NYZ026>034-041>043-280800-
NORTH


CITY           SKY/WX    TMP DP  RH WIND       PRES   REMARKS
WATERTOWN      CLOUDY    10   4  76 W6        30.66R WCI   0
FORT DRUM      NOT AVBL
MASSENA        CLEAR      4  -5  66 SW10      30.63R WCI -11
SARANAC LAKE   CLOUDY    -6 -10  83 CALM      30.46S FOG
PLATTSBURGH    CLEAR     11  -1  58 CALM      30.60R
$$

NYZ001>004-010>016-019>021-280800-
WEST


CITY           SKY/WX    TMP DP  RH WIND       PRES   REMARKS
NIAGARA FALLS  CLEAR      2  -3  80 SW8       30.67R HAZE    WCI -12
BUFFALO        PTCLDY     5  -1  76 SW8       30.67R WCI  -8
DUNKIRK        CLEAR      2  -4  76 SW7       30.69R WCI -11
JAMESTOWN      PTCLDY     0  -8  71 S3        30.56R
WELLSVILLE     CLEAR     -1  -9  68 W10       30.53S WCI -17
ROCHESTER      CLEAR      0  -5  79 SW7       30.68R WCI -13
PENN YAN       CLEAR      2  -7  66 SW7       30.65R WCI -11
$$

             KEY
       WCI = WIND CHILL INDEX
       VSB = VISIBILITY
       HX  = HEAT INDEX
$$



USA.gov is the U.S. government's official web portal to all federal, state and local government web resources and services.